Time,TemperatureF,DewpointF,PressureIn,WindDirection,WindDirectionDegrees,WindSpeedMPH,WindSpeedGustMPH,Humidity,HourlyPrecipIn,Conditions,Clouds,dailyrainin,SoftwareType,DateUTC
2013-01-22 00:00:00,21.3,18.3,29.74,NNE,30,2.0,6.0,88,0.00,,---,0.00,VWS V14.01,2013-01-22 05:00:00,
2013-01-22 00:01:00,21.3,18.3,29.74,NNE,30,1.0,6.0,88,0.00,,---,0.00,VWS V14.01,2013-01-22 05:01:00,
2013-01-22 00:02:00,21.3,18.3,29.74,NNE,30,3.0,6.0,88,0.00,,---,0.00,VWS V14.01,2013-01-22 05:02:00,
2013-01-22 00:06:00,21.3,18.3,29.74,NNE,30,0.0,3.0,88,0.00,,---,0.00,VWS V14.01,2013-01-22 05:06:00,
2013-01-22 00:12:00,21.3,18.3,29.74,NNE,30,3.0,4.0,88,0.00,,---,0.00,VWS V14.01,2013-01-22 05:12:00,
2013-01-22 00:17:00,21.3,18.3,29.74,NNE,30,0.0,4.0,88,0.00,,---,0.00,VWS V14.01,2013-01-22 05:17:00,
2013-01-22 00:22:00,21.3,18.3,29.73,NNE,30,3.0,4.0,88,0.00,,---,0.00,VWS V14.01,2013-01-22 05:22:00,
2013-01-22 00:27:00,21.3,18.3,29.73,NNE,30,0.0,4.0,88,0.00,,---,0.00,VWS V14.01,2013-01-22 05:27:00,
2013-01-22 00:32:00,21.4,18.4,29.73,NNE,30,0.0,4.0,88,0.00,,---,0.00,VWS V14.01,2013-01-22 05:32:00,
2013-01-22 00:37:00,21.4,18.4,29.73,NNE,30,0.0,4.0,88,0.00,,---,0.00,VWS V14.01,2013-01-22 05:37:00,
2013-01-22 00:42:00,21.4,18.4,29.72,NNE,30,4.0,5.0,88,0.00,,---,0.00,VWS V14.01,2013-01-22 05:42:00,
2013-01-22 00:47:00,21.4,18.4,29.70,NE,40,11.0,11.0,88,0.00,,---,0.00,VWS V14.01,2013-01-22 05:47:00,
2013-01-22 00:52:00,21.4,18.4,29.72,ENE,61,1.0,11.0,88,0.00,,---,0.00,VWS V14.01,2013-01-22 05:52:00,
2013-01-22 00:57:00,21.4,18.4,29.72,ENE,61,3.0,11.0,88,0.00,,---,0.00,VWS V14.01,2013-01-22 05:57:00,
2013-01-22 01:02:00,21.4,18.4,29.73,ENE,61,0.0,0.0,88,0.00,,---,0.00,VWS V14.01,2013-01-22 06:02:00,
2013-01-22 01:07:00,21.4,18.4,29.72,ENE,61,0.0,5.0,88,0.00,,---,0.00,VWS V14.01,2013-01-22 06:07:00,
2013-01-22 01:12:00,21.4,18.4,29.72,ENE,61,2.0,7.0,88,0.00,,---,0.00,VWS V14.01,2013-01-22 06:12:00,
2013-01-22 01:17:00,21.4,18.4,29.71,ENE,72,9.0,12.0,88,0.00,,---,0.00,VWS V14.01,2013-01-22 06:17:00,
2013-01-22 01:22:00,21.4,18.4,29.71,ENE,76,11.0,12.0,88,0.00,,---,0.00,VWS V14.01,2013-01-22 06:22:00,
2013-01-22 01:27:00,21.4,18.4,29.71,East,80,0.0,12.0,88,0.00,,---,0.00,VWS V14.01,2013-01-22 06:27:00,
2013-01-22 01:32:00,21.4,18.4,29.72,East,83,3.0,3.0,88,0.00,,---,0.00,VWS V14.01,2013-01-22 06:32:00,
2013-01-22 01:37:00,21.3,18.3,29.73,East,83,0.0,4.0,88,0.00,,---,0.00,VWS V14.01,2013-01-22 06:37:00,
2013-01-22 01:42:00,21.3,18.0,29.73,East,83,0.0,4.0,87,0.00,,---,0.00,VWS V14.01,2013-01-22 06:42:00,
2013-01-22 01:47:00,21.3,18.0,29.73,East,83,0.0,4.0,87,0.00,,---,0.00,VWS V14.01,2013-01-22 06:47:00,
2013-01-22 01:52:00,21.2,17.9,29.72,East,83,0.0,4.0,87,0.00,,---,0.00,VWS V14.01,2013-01-22 06:52:00,
2013-01-22 01:57:00,21.1,17.8,29.72,East,83,0.0,4.0,87,0.00,,---,0.00,VWS V14.01,2013-01-22 06:57:00,
2013-01-22 02:03:00,21.0,17.8,29.72,East,83,0.0,0.0,87,0.00,,---,0.00,VWS V14.01,2013-01-22 07:03:00,
2013-01-22 02:08:00,20.9,17.6,29.72,East,83,0.0,0.0,87,0.00,,---,0.00,VWS V14.01,2013-01-22 07:08:00,
2013-01-22 02:13:00,20.8,17.5,29.72,East,83,0.0,0.0,87,0.00,,---,0.00,VWS V14.01,2013-01-22 07:13:00,
2013-01-22 02:18:00,20.6,17.4,29.72,East,83,0.0,0.0,87,0.00,,---,0.00,VWS V14.01,2013-01-22 07:18:00,
2013-01-22 02:23:00,20.4,17.2,29.72,East,83,0.0,0.0,87,0.00,,---,0.00,VWS V14.01,2013-01-22 07:23:00,
2013-01-22 02:28:00,20.2,17.0,29.72,East,83,0.0,0.0,87,0.00,,---,0.00,VWS V14.01,2013-01-22 07:28:00,
2013-01-22 02:33:00,19.8,16.8,29.72,East,83,2.0,2.0,88,0.00,,---,0.00,VWS V14.01,2013-01-22 07:33:00,
2013-01-22 02:38:00,19.6,16.6,29.72,East,83,1.0,3.0,88,0.00,,---,0.00,VWS V14.01,2013-01-22 07:38:00,
2013-01-22 02:43:00,19.4,16.4,29.72,East,83,0.0,3.0,88,0.00,,---,0.00,VWS V14.01,2013-01-22 07:43:00,
2013-01-22 02:48:00,19.3,16.3,29.71,East,83,0.0,3.0,88,0.00,,---,0.00,VWS V14.01,2013-01-22 07:48:00,
2013-01-22 02:53:00,19.1,16.1,29.71,East,83,0.0,3.0,88,0.00,,---,0.00,VWS V14.01,2013-01-22 07:53:00,
2013-01-22 02:58:00,18.8,15.8,29.71,East,83,0.0,3.0,88,0.00,,---,0.00,VWS V14.01,2013-01-22 07:58:00,
2013-01-22 03:03:00,18.6,15.6,29.71,East,83,0.0,0.0,88,0.00,,---,0.00,VWS V14.01,2013-01-22 08:03:00,
2013-01-22 03:08:00,18.3,15.4,29.71,East,83,0.0,1.0,88,0.00,,---,0.00,VWS V14.01,2013-01-22 08:08:00,
2013-01-22 03:13:00,18.2,15.5,29.70,East,83,0.0,3.0,89,0.00,,---,0.00,VWS V14.01,2013-01-22 08:13:00,
2013-01-22 03:18:00,18.0,15.3,29.70,East,83,0.0,3.0,89,0.00,,---,0.00,VWS V14.01,2013-01-22 08:18:00,
2013-01-22 03:23:00,17.9,15.2,29.71,East,83,0.0,3.0,89,0.00,,---,0.00,VWS V14.01,2013-01-22 08:23:00,
2013-01-22 03:28:00,17.9,15.2,29.71,East,83,0.0,3.0,89,0.00,,---,0.00,VWS V14.01,2013-01-22 08:28:00,
2013-01-22 03:33:00,17.8,15.4,29.71,East,83,0.0,0.0,90,0.00,,---,0.00,VWS V14.01,2013-01-22 08:33:00,
2013-01-22 03:38:00,17.8,15.4,29.70,East,83,0.0,0.0,90,0.00,,---,0.00,VWS V14.01,2013-01-22 08:38:00,
2013-01-22 03:43:00,17.7,15.3,29.70,East,83,0.0,0.0,90,0.00,,---,0.00,VWS V14.01,2013-01-22 08:43:00,
2013-01-22 03:48:00,17.6,15.2,29.70,East,83,0.0,0.0,90,0.00,,---,0.00,VWS V14.01,2013-01-22 08:48:00,
2013-01-22 03:53:00,17.5,14.8,29.70,East,83,0.0,0.0,89,0.00,,---,0.00,VWS V14.01,2013-01-22 08:53:00,
2013-01-22 03:58:00,17.3,14.6,29.70,East,83,1.0,4.0,89,0.00,,---,0.00,VWS V14.01,2013-01-22 08:58:00,
2013-01-22 04:03:00,17.2,14.5,29.70,East,83,0.0,0.0,89,0.00,,---,0.00,VWS V14.01,2013-01-22 09:03:00,
2013-01-22 04:08:00,17.1,14.7,29.70,East,83,0.0,2.0,90,0.00,,---,0.00,VWS V14.01,2013-01-22 09:08:00,
2013-01-22 04:13:00,17.0,14.6,29.71,East,83,0.0,2.0,90,0.00,,---,0.00,VWS V14.01,2013-01-22 09:13:00,
2013-01-22 04:18:00,17.0,14.6,29.71,East,83,0.0,2.0,90,0.00,,---,0.00,VWS V14.01,2013-01-22 09:18:00,
2013-01-22 04:23:00,16.9,14.5,29.71,East,83,0.0,2.0,90,0.00,,---,0.00,VWS V14.01,2013-01-22 09:23:00,
2013-01-22 04:29:00,16.9,14.5,29.71,East,83,0.0,2.0,90,0.00,,---,0.00,VWS V14.01,2013-01-22 09:29:00,
2013-01-22 04:34:00,16.9,14.5,29.71,East,83,0.0,0.0,90,0.00,,---,0.00,VWS V14.01,2013-01-22 09:34:00,
2013-01-22 04:39:00,17.0,14.6,29.70,East,83,0.0,0.0,90,0.00,,---,0.00,VWS V14.01,2013-01-22 09:39:00,
2013-01-22 04:44:00,17.0,14.6,29.70,East,83,0.0,0.0,90,0.00,,---,0.00,VWS V14.01,2013-01-22 09:44:00,
2013-01-22 04:49:00,17.1,14.7,29.70,East,83,0.0,0.0,90,0.00,,---,0.00,VWS V14.01,2013-01-22 09:49:00,
2013-01-22 04:54:00,17.2,15.0,29.70,East,83,0.0,0.0,91,0.00,,---,0.00,VWS V14.01,2013-01-22 09:54:00,
2013-01-22 04:59:00,17.3,15.1,29.70,East,83,0.0,0.0,91,0.00,,---,0.00,VWS V14.01,2013-01-22 09:59:00,
2013-01-22 05:04:00,17.5,15.3,29.70,East,83,0.0,0.0,91,0.00,,---,0.00,VWS V14.01,2013-01-22 10:04:00,
2013-01-22 05:09:00,17.6,15.4,29.70,East,83,0.0,0.0,91,0.00,,---,0.00,VWS V14.01,2013-01-22 10:09:00,
2013-01-22 05:14:00,17.8,15.6,29.70,East,83,0.0,0.0,91,0.00,,---,0.00,VWS V14.01,2013-01-22 10:14:00,
2013-01-22 05:19:00,18.0,15.8,29.71,East,83,0.0,1.0,91,0.00,,---,0.00,VWS V14.01,2013-01-22 10:19:00,
2013-01-22 05:24:00,18.1,15.9,29.71,East,83,1.0,3.0,91,0.00,,---,0.00,VWS V14.01,2013-01-22 10:24:00,
2013-01-22 05:29:00,18.3,16.1,29.71,East,83,0.0,3.0,91,0.00,,---,0.00,VWS V14.01,2013-01-22 10:29:00,
2013-01-22 05:34:00,18.3,15.9,29.71,East,83,0.0,0.0,90,0.00,,---,0.00,VWS V14.01,2013-01-22 10:34:00,
2013-01-22 05:39:00,18.3,15.9,29.71,East,83,0.0,0.0,90,0.00,,---,0.00,VWS V14.01,2013-01-22 10:39:00,
2013-01-22 05:44:00,18.3,15.9,29.71,East,83,0.0,0.0,90,0.00,,---,0.00,VWS V14.01,2013-01-22 10:44:00,
2013-01-22 05:49:00,18.3,15.9,29.71,East,83,0.0,0.0,90,0.00,,---,0.00,VWS V14.01,2013-01-22 10:49:00,
2013-01-22 05:54:00,18.2,15.8,29.71,East,83,0.0,0.0,90,0.00,,---,0.00,VWS V14.01,2013-01-22 10:54:00,
2013-01-22 05:59:00,18.1,15.7,29.72,East,83,0.0,0.0,90,0.00,,---,0.00,VWS V14.01,2013-01-22 10:59:00,
2013-01-22 06:04:00,18.0,15.3,29.72,East,83,0.0,0.0,89,0.00,,---,0.00,VWS V14.01,2013-01-22 11:04:00,
2013-01-22 06:09:00,17.9,15.2,29.72,East,83,0.0,0.0,89,0.00,,---,0.00,VWS V14.01,2013-01-22 11:09:00,
2013-01-22 06:15:00,17.8,15.1,29.72,East,83,0.0,0.0,89,0.00,,---,0.00,VWS V14.01,2013-01-22 11:15:00,
2013-01-22 06:20:00,17.7,15.0,29.72,East,83,0.0,0.0,89,0.00,,---,0.00,VWS V14.01,2013-01-22 11:20:00,
2013-01-22 06:25:00,17.5,14.8,29.72,East,83,0.0,0.0,89,0.00,,---,0.00,VWS V14.01,2013-01-22 11:25:00,
2013-01-22 06:30:00,17.3,14.6,29.72,East,83,0.0,0.0,89,0.00,,---,0.00,VWS V14.01,2013-01-22 11:30:00,
2013-01-22 06:35:00,17.0,14.3,29.73,East,83,0.0,0.0,89,0.00,,---,0.00,VWS V14.01,2013-01-22 11:35:00,
2013-01-22 06:40:00,16.7,14.0,29.72,East,83,0.0,0.0,89,0.00,,---,0.00,VWS V14.01,2013-01-22 11:40:00,
2013-01-22 06:45:00,16.5,13.8,29.72,East,83,0.0,0.0,89,0.00,,---,0.00,VWS V14.01,2013-01-22 11:45:00,
2013-01-22 06:50:00,16.3,13.6,29.72,East,83,0.0,0.0,89,0.00,,---,0.00,VWS V14.01,2013-01-22 11:50:00,
2013-01-22 06:55:00,16.1,13.4,29.73,East,83,0.0,0.0,89,0.00,,---,0.00,VWS V14.01,2013-01-22 11:55:00,
2013-01-22 07:01:00,15.9,13.2,29.72,East,83,0.0,0.0,89,0.00,,---,0.00,VWS V14.01,2013-01-22 12:01:00,
2013-01-22 07:07:00,15.9,13.5,29.73,East,83,0.0,1.0,90,0.00,,---,0.00,VWS V14.01,2013-01-22 12:07:00,
2013-01-22 07:12:00,16.0,13.6,29.73,East,83,0.0,2.0,90,0.00,,---,0.00,VWS V14.01,2013-01-22 12:12:00,
2013-01-22 07:17:00,16.2,13.8,29.73,East,83,2.0,4.0,90,0.00,,---,0.00,VWS V14.01,2013-01-22 12:17:00,
2013-01-22 07:22:00,16.5,14.3,29.74,East,83,1.0,4.0,91,0.00,,---,0.00,VWS V14.01,2013-01-22 12:22:00,
2013-01-22 07:27:00,16.8,14.4,29.74,East,83,1.0,10.0,90,0.00,,---,0.00,VWS V14.01,2013-01-22 12:27:00,
2013-01-22 07:32:00,17.3,14.6,29.74,East,82,2.0,4.0,89,0.00,,---,0.00,VWS V14.01,2013-01-22 12:32:00,
2013-01-22 07:38:00,17.7,14.8,29.74,East,82,2.0,4.0,88,0.00,,---,0.00,VWS V14.01,2013-01-22 12:38:00,
2013-01-22 07:43:00,18.0,14.8,29.74,East,82,5.0,9.0,87,0.00,,---,0.00,VWS V14.01,2013-01-22 12:43:00,
2013-01-22 07:48:00,18.2,14.7,29.74,East,82,6.0,9.0,86,0.00,,---,0.00,VWS V14.01,2013-01-22 12:48:00,
2013-01-22 07:53:00,18.4,14.9,29.75,ENE,74,6.0,11.0,86,0.00,,---,0.00,VWS V14.01,2013-01-22 12:53:00,
2013-01-22 07:58:00,18.5,14.8,29.75,ENE,72,2.0,11.0,85,0.00,,---,0.00,VWS V14.01,2013-01-22 12:58:00,
2013-01-22 08:03:00,18.7,14.7,29.75,ENE,72,4.0,13.0,84,0.00,,---,0.00,VWS V14.01,2013-01-22 13:03:00,
2013-01-22 08:09:00,18.8,14.5,29.75,East,80,3.0,13.0,83,0.00,,---,0.00,VWS V14.01,2013-01-22 13:09:00,
2013-01-22 08:14:00,18.9,14.6,29.75,ENE,63,6.0,13.0,83,0.00,,---,0.00,VWS V14.01,2013-01-22 13:14:00,
2013-01-22 08:19:00,19.1,14.5,29.75,ENE,66,6.0,14.0,82,0.00,,---,0.00,VWS V14.01,2013-01-22 13:19:00,
2013-01-22 08:25:00,19.1,14.0,29.76,ENE,69,5.0,14.0,80,0.00,,---,0.00,VWS V14.01,2013-01-22 13:25:00,
2013-01-22 08:30:00,19.3,14.1,29.76,ENE,70,2.0,14.0,80,0.00,,---,0.00,VWS V14.01,2013-01-22 13:30:00,
2013-01-22 08:35:00,19.3,13.6,29.76,ENE,71,4.0,6.0,78,0.00,,---,0.00,VWS V14.01,2013-01-22 13:35:00,
2013-01-22 08:40:00,19.4,13.4,29.76,ENE,71,3.0,11.0,77,0.00,,---,0.00,VWS V14.01,2013-01-22 13:40:00,
2013-01-22 08:45:00,19.4,13.1,29.77,NE,50,3.0,13.0,76,0.00,,---,0.00,VWS V14.01,2013-01-22 13:45:00,
2013-01-22 08:51:00,19.5,13.2,29.77,East,79,4.0,15.0,76,0.00,,---,0.00,VWS V14.01,2013-01-22 13:51:00,
2013-01-22 08:56:00,19.6,13.3,29.77,ESE,119,5.0,20.0,76,0.00,,---,0.00,VWS V14.01,2013-01-22 13:56:00,
2013-01-22 09:01:00,19.7,13.1,29.77,ESE,110,10.0,20.0,75,0.00,,---,0.00,VWS V14.01,2013-01-22 14:01:00,
2013-01-22 09:06:00,19.9,13.0,29.78,ESE,103,11.0,14.0,74,0.00,,---,0.00,VWS V14.01,2013-01-22 14:06:00,
2013-01-22 09:12:00,20.0,12.4,29.78,ENE,57,6.0,31.0,72,0.00,,---,0.00,VWS V14.01,2013-01-22 14:12:00,
2013-01-22 09:17:00,20.1,12.2,29.78,ENE,61,2.0,31.0,71,0.00,,---,0.00,VWS V14.01,2013-01-22 14:17:00,
2013-01-22 09:22:00,20.2,12.3,29.78,SE,127,5.0,31.0,71,0.00,,---,0.00,VWS V14.01,2013-01-22 14:22:00,
2013-01-22 09:27:00,20.3,12.1,29.78,SE,136,3.0,31.0,70,0.00,,---,0.00,VWS V14.01,2013-01-22 14:27:00,
2013-01-22 09:33:00,20.4,11.9,29.78,East,93,9.0,16.0,69,0.00,,---,0.00,VWS V14.01,2013-01-22 14:33:00,
2013-01-22 09:38:00,20.4,11.9,29.78,SE,136,3.0,21.0,69,0.00,,---,0.00,VWS V14.01,2013-01-22 14:38:00,
2013-01-22 09:43:00,20.4,11.9,29.78,ESE,116,2.0,26.0,69,0.00,,---,0.00,VWS V14.01,2013-01-22 14:43:00,
2013-01-22 09:48:00,20.6,11.4,29.78,SE,132,7.0,31.0,67,0.00,,---,0.00,VWS V14.01,2013-01-22 14:48:00,
2013-01-22 09:53:00,20.8,11.2,29.79,ESE,122,6.0,31.0,66,0.00,,---,0.00,VWS V14.01,2013-01-22 14:53:00,
2013-01-22 09:58:00,21.0,11.1,29.78,SE,125,6.0,31.0,65,0.00,,---,0.00,VWS V14.01,2013-01-22 14:58:00,
2013-01-22 10:03:00,21.2,11.3,29.79,SE,131,21.0,21.0,65,0.00,,---,0.00,VWS V14.01,2013-01-22 15:03:00,
2013-01-22 10:08:00,21.5,11.6,29.79,ESE,111,10.0,21.0,65,0.00,,---,0.00,VWS V14.01,2013-01-22 15:08:00,
2013-01-22 10:13:00,21.7,11.1,29.79,East,86,6.0,21.0,63,0.00,,---,0.00,VWS V14.01,2013-01-22 15:13:00,
2013-01-22 10:18:00,21.9,10.9,29.79,SE,133,13.0,21.0,62,0.00,,---,0.00,VWS V14.01,2013-01-22 15:18:00,
2013-01-22 10:23:00,22.0,11.0,29.79,ENE,70,8.0,21.0,62,0.00,,---,0.00,VWS V14.01,2013-01-22 15:23:00,
2013-01-22 10:29:00,22.2,10.8,29.80,East,101,6.0,21.0,61,0.00,,---,0.00,VWS V14.01,2013-01-22 15:29:00,
2013-01-22 10:34:00,22.2,10.4,29.80,ESE,119,15.0,15.0,60,0.00,,---,0.00,VWS V14.01,2013-01-22 15:34:00,
2013-01-22 10:39:00,22.2,10.1,29.80,East,95,9.0,25.0,59,0.00,,---,0.00,VWS V14.01,2013-01-22 15:39:00,
2013-01-22 10:44:00,22.3,9.8,29.80,East,90,4.0,25.0,58,0.00,,---,0.00,VWS V14.01,2013-01-22 15:44:00,
2013-01-22 10:49:00,22.3,10.5,29.80,SE,125,6.0,25.0,60,0.00,,---,0.00,VWS V14.01,2013-01-22 15:49:00,
2013-01-22 10:54:00,22.2,9.7,29.80,ESE,109,4.0,25.0,58,0.00,,---,0.00,VWS V14.01,2013-01-22 15:54:00,
2013-01-22 10:59:00,22.0,9.9,29.80,NE,50,14.0,25.0,59,0.00,,---,0.00,VWS V14.01,2013-01-22 15:59:00,
2013-01-22 11:04:00,22.0,9.9,29.80,ENE,69,3.0,11.0,59,0.00,,---,0.00,VWS V14.01,2013-01-22 16:04:00,
2013-01-22 11:09:00,22.3,9.8,29.79,ENE,74,10.0,23.0,58,0.00,,---,0.00,VWS V14.01,2013-01-22 16:09:00,
2013-01-22 11:15:00,22.4,9.5,29.79,ENE,67,9.0,23.0,57,0.00,,---,0.00,VWS V14.01,2013-01-22 16:15:00,
2013-01-22 11:20:00,22.2,8.9,29.79,ENE,76,11.0,23.0,56,0.00,,---,0.00,VWS V14.01,2013-01-22 16:20:00,
2013-01-22 11:25:00,22.1,8.8,29.79,NE,55,6.0,23.0,56,0.00,,---,0.00,VWS V14.01,2013-01-22 16:25:00,
2013-01-22 11:30:00,22.3,8.2,29.79,ENE,63,5.0,23.0,54,0.00,,---,0.00,VWS V14.01,2013-01-22 16:30:00,
2013-01-22 11:35:00,22.2,7.7,29.79,East,83,4.0,17.0,53,0.00,,---,0.00,VWS V14.01,2013-01-22 16:35:00,
2013-01-22 11:40:00,22.0,8.3,29.79,ESE,123,11.0,21.0,55,0.00,,---,0.00,VWS V14.01,2013-01-22 16:40:00,
2013-01-22 11:45:00,22.3,8.2,29.79,East,88,12.0,28.0,54,0.00,,---,0.00,VWS V14.01,2013-01-22 16:45:00,
2013-01-22 11:50:00,22.2,8.1,29.79,East,94,6.0,28.0,54,0.00,,---,0.00,VWS V14.01,2013-01-22 16:50:00,
2013-01-22 11:55:00,22.0,7.5,29.79,East,90,9.0,28.0,53,0.00,,---,0.00,VWS V14.01,2013-01-22 16:55:00,
2013-01-22 12:01:00,21.6,7.1,29.79,SE,128,0.0,28.0,53,0.00,,---,0.00,VWS V14.01,2013-01-22 17:01:00,
2013-01-22 12:06:00,21.7,8.0,29.79,ENE,65,13.0,13.0,55,0.00,,---,0.00,VWS V14.01,2013-01-22 17:06:00,
2013-01-22 12:12:00,21.8,8.1,29.79,ENE,78,2.0,23.0,55,0.00,,---,0.00,VWS V14.01,2013-01-22 17:12:00,
2013-01-22 12:17:00,21.6,7.9,29.79,ESE,119,5.0,23.0,55,0.00,,---,0.00,VWS V14.01,2013-01-22 17:17:00,
2013-01-22 12:22:00,21.3,7.7,29.79,East,101,2.0,23.0,55,0.00,,---,0.00,VWS V14.01,2013-01-22 17:22:00,
2013-01-22 12:27:00,21.2,7.2,29.79,ENE,69,2.0,23.0,54,0.00,,---,0.00,VWS V14.01,2013-01-22 17:27:00,
2013-01-22 12:32:00,21.2,6.8,29.78,NE,51,10.0,15.0,53,0.00,,---,0.00,VWS V14.01,2013-01-22 17:32:00,
2013-01-22 12:38:00,21.3,6.4,29.78,ENE,57,4.0,17.0,52,0.00,,---,0.00,VWS V14.01,2013-01-22 17:38:00,
2013-01-22 12:43:00,21.6,6.7,29.78,NE,39,10.0,17.0,52,0.00,,---,0.00,VWS V14.01,2013-01-22 17:43:00,
2013-01-22 12:48:00,22.2,6.4,29.78,NNE,19,9.0,17.0,50,0.00,,---,0.00,VWS V14.01,2013-01-22 17:48:00,
2013-01-22 12:53:00,22.6,7.2,29.78,ENE,60,0.0,17.0,51,0.00,,---,0.00,VWS V14.01,2013-01-22 17:53:00,
2013-01-22 12:58:00,22.8,7.8,29.78,NE,42,7.0,19.0,52,0.00,,---,0.00,VWS V14.01,2013-01-22 17:58:00,
2013-01-22 13:03:00,22.7,7.7,29.78,NNE,31,14.0,15.0,52,0.00,,---,0.00,VWS V14.01,2013-01-22 18:03:00,
2013-01-22 13:08:00,22.5,7.5,29.78,East,100,6.0,17.0,52,0.00,,---,0.00,VWS V14.01,2013-01-22 18:08:00,
2013-01-22 13:13:00,22.5,6.7,29.78,NE,51,21.0,21.0,50,0.00,,---,0.00,VWS V14.01,2013-01-22 18:13:00,
2013-01-22 13:19:00,22.6,6.3,29.79,ESE,114,11.0,23.0,49,0.00,,---,0.00,VWS V14.01,2013-01-22 18:19:00,
2013-01-22 13:24:00,22.5,6.2,29.78,ENE,76,7.0,27.0,49,0.00,,---,0.00,VWS V14.01,2013-01-22 18:24:00,
2013-01-22 13:29:00,22.3,5.6,29.79,SE,134,19.0,27.0,48,0.00,,---,0.00,VWS V14.01,2013-01-22 18:29:00,
2013-01-22 13:34:00,22.2,6.4,29.78,East,87,4.0,10.0,50,0.00,,---,0.00,VWS V14.01,2013-01-22 18:34:00,
2013-01-22 13:39:00,22.3,6.5,29.79,NE,54,5.0,11.0,50,0.00,,---,0.00,VWS V14.01,2013-01-22 18:39:00,
2013-01-22 13:44:00,22.5,6.2,29.79,NE,53,9.0,15.0,49,0.00,,---,0.00,VWS V14.01,2013-01-22 18:44:00,
2013-01-22 13:49:00,22.5,5.3,29.79,ENE,63,9.0,23.0,47,0.00,,---,0.00,VWS V14.01,2013-01-22 18:49:00,
2013-01-22 13:54:00,22.6,5.4,29.79,North,360,15.0,23.0,47,0.00,,---,0.00,VWS V14.01,2013-01-22 18:54:00,
2013-01-22 14:00:00,22.6,5.4,29.80,NE,53,11.0,25.0,47,0.00,,---,0.00,VWS V14.01,2013-01-22 19:00:00,
2013-01-22 14:05:00,22.6,5.4,29.80,ENE,72,15.0,15.0,47,0.00,,---,0.00,VWS V14.01,2013-01-22 19:05:00,
2013-01-22 14:10:00,22.5,5.3,29.80,ENE,61,6.0,15.0,47,0.00,,---,0.00,VWS V14.01,2013-01-22 19:10:00,
2013-01-22 14:15:00,22.3,4.7,29.80,NE,48,6.0,15.0,46,0.00,,---,0.00,VWS V14.01,2013-01-22 19:15:00,
2013-01-22 14:20:00,22.1,4.5,29.81,ENE,71,6.0,18.0,46,0.00,,---,0.00,VWS V14.01,2013-01-22 19:20:00,
2013-01-22 14:25:00,22.0,4.4,29.81,ENE,61,10.0,18.0,46,0.00,,---,0.00,VWS V14.01,2013-01-22 19:25:00,
2013-01-22 14:30:00,21.8,4.2,29.81,ENE,58,5.0,25.0,46,0.00,,---,0.00,VWS V14.01,2013-01-22 19:30:00,
2013-01-22 14:35:00,21.7,4.1,29.82,ENE,72,4.0,9.0,46,0.00,,---,0.00,VWS V14.01,2013-01-22 19:35:00,
2013-01-22 14:41:00,21.7,4.1,29.82,NE,45,10.0,14.0,46,0.00,,---,0.00,VWS V14.01,2013-01-22 19:41:00,
2013-01-22 14:46:00,21.8,4.2,29.82,ESE,121,4.0,17.0,46,0.00,,---,0.00,VWS V14.01,2013-01-22 19:46:00,
2013-01-22 14:51:00,21.9,3.8,29.82,SE,127,10.0,17.0,45,0.00,,---,0.00,VWS V14.01,2013-01-22 19:51:00,
2013-01-22 14:56:00,21.9,3.3,29.83,East,90,3.0,17.0,44,0.00,,---,0.00,VWS V14.01,2013-01-22 19:56:00,
2013-01-22 15:01:00,21.9,3.8,29.83,ENE,71,4.0,19.0,45,0.00,,---,0.00,VWS V14.01,2013-01-22 20:01:00,
2013-01-22 15:07:00,21.7,3.7,29.83,ENE,71,9.0,15.0,45,0.00,,---,0.00,VWS V14.01,2013-01-22 20:07:00,
2013-01-22 15:12:00,21.7,3.2,29.83,ENE,57,5.0,15.0,44,0.00,,---,0.00,VWS V14.01,2013-01-22 20:12:00,
2013-01-22 15:17:00,21.6,3.1,29.83,ENE,78,2.0,15.0,44,0.00,,---,0.00,VWS V14.01,2013-01-22 20:17:00,
2013-01-22 15:22:00,21.6,3.1,29.83,NE,54,11.0,15.0,44,0.00,,---,0.00,VWS V14.01,2013-01-22 20:22:00,
2013-01-22 15:28:00,21.7,3.2,29.84,ENE,61,3.0,21.0,44,0.00,,---,0.00,VWS V14.01,2013-01-22 20:28:00,
2013-01-22 15:33:00,21.7,2.7,29.84,ENE,65,6.0,11.0,43,0.00,,---,0.00,VWS V14.01,2013-01-22 20:33:00,
2013-01-22 15:38:00,21.7,2.2,29.84,East,90,9.0,17.0,42,0.00,,---,0.00,VWS V14.01,2013-01-22 20:38:00,
2013-01-22 15:43:00,21.6,2.1,29.84,ENE,71,4.0,17.0,42,0.00,,---,0.00,VWS V14.01,2013-01-22 20:43:00,
2013-01-22 15:48:00,21.6,2.1,29.84,ESE,102,7.0,17.0,42,0.00,,---,0.00,VWS V14.01,2013-01-22 20:48:00,
2013-01-22 15:53:00,21.5,2.0,29.85,ENE,66,9.0,17.0,42,0.00,,---,0.00,VWS V14.01,2013-01-22 20:53:00,
2013-01-22 15:58:00,21.4,1.4,29.85,ENE,65,9.0,18.0,41,0.00,,---,0.00,VWS V14.01,2013-01-22 20:58:00,
2013-01-22 16:03:00,21.2,0.7,29.85,ENE,59,4.0,17.0,40,0.00,,---,0.00,VWS V14.01,2013-01-22 21:03:00,
2013-01-22 16:08:00,21.1,1.1,29.85,NE,55,6.0,17.0,41,0.00,,---,0.00,VWS V14.01,2013-01-22 21:08:00,
2013-01-22 16:14:00,20.8,1.8,29.86,ENE,57,5.0,21.0,43,0.00,,---,0.00,VWS V14.01,2013-01-22 21:14:00,
2013-01-22 16:19:00,20.7,1.8,29.86,NE,49,6.0,22.0,43,0.00,,---,0.00,VWS V14.01,2013-01-22 21:19:00,
2013-01-22 16:24:00,20.5,1.1,29.86,ENE,57,6.0,22.0,42,0.00,,---,0.00,VWS V14.01,2013-01-22 21:24:00,
2013-01-22 16:29:00,20.3,0.9,29.87,ENE,63,9.0,22.0,42,0.00,,---,0.00,VWS V14.01,2013-01-22 21:29:00,
2013-01-22 16:34:00,20.0,1.1,29.87,ENE,66,4.0,13.0,43,0.00,,---,0.00,VWS V14.01,2013-01-22 21:34:00,
2013-01-22 16:38:00,19.8,1.4,29.87,ENE,74,2.0,13.0,44,0.00,,---,0.00,VWS V14.01,2013-01-22 21:38:00,
2013-01-22 16:43:00,19.6,1.7,29.88,ENE,74,4.0,13.0,45,0.00,,---,0.00,VWS V14.01,2013-01-22 21:43:00,
2013-01-22 16:48:00,19.4,1.5,29.88,ENE,74,4.0,13.0,45,0.00,,---,0.00,VWS V14.01,2013-01-22 21:48:00,
2013-01-22 16:53:00,19.3,1.9,29.88,ENE,73,7.0,13.0,46,0.00,,---,0.00,VWS V14.01,2013-01-22 21:53:00,
2013-01-22 16:58:00,19.1,1.7,29.88,ENE,69,2.0,13.0,46,0.00,,---,0.00,VWS V14.01,2013-01-22 21:58:00,
2013-01-22 17:03:00,19.0,1.6,29.88,ENE,69,1.0,9.0,46,0.00,,---,0.00,VWS V14.01,2013-01-22 22:03:00,
2013-01-22 17:09:00,18.8,1.5,29.88,NE,52,8.0,19.0,46,0.00,,---,0.00,VWS V14.01,2013-01-22 22:09:00,
2013-01-22 17:14:00,18.7,0.9,29.89,ENE,59,4.0,19.0,45,0.00,,---,0.00,VWS V14.01,2013-01-22 22:14:00,
2013-01-22 17:19:00,18.6,1.3,29.89,East,80,9.0,19.0,46,0.00,,---,0.00,VWS V14.01,2013-01-22 22:19:00,
2013-01-22 17:24:00,18.5,1.2,29.90,ENE,63,3.0,19.0,46,0.00,,---,0.00,VWS V14.01,2013-01-22 22:24:00,
2013-01-22 17:29:00,18.4,1.5,29.90,ENE,71,3.0,19.0,47,0.00,,---,0.00,VWS V14.01,2013-01-22 22:29:00,
2013-01-22 17:34:00,18.2,2.3,29.90,East,80,2.0,11.0,49,0.00,,---,0.00,VWS V14.01,2013-01-22 22:34:00,
2013-01-22 17:39:00,18.1,2.2,29.91,East,80,0.0,11.0,49,0.00,,---,0.00,VWS V14.01,2013-01-22 22:39:00,
2013-01-22 17:44:00,18.0,2.9,29.91,ENE,64,15.0,15.0,51,0.00,,---,0.00,VWS V14.01,2013-01-22 22:44:00,
2013-01-22 17:49:00,17.9,2.8,29.91,NE,54,4.0,16.0,51,0.00,,---,0.00,VWS V14.01,2013-01-22 22:49:00,
2013-01-22 17:54:00,17.7,2.2,29.91,ENE,64,10.0,20.0,50,0.00,,---,0.00,VWS V14.01,2013-01-22 22:54:00,
2013-01-22 17:59:00,17.6,2.1,29.91,ENE,62,3.0,20.0,50,0.00,,---,0.00,VWS V14.01,2013-01-22 22:59:00,
2013-01-22 18:05:00,17.5,2.0,29.92,ENE,64,9.0,11.0,50,0.00,,---,0.00,VWS V14.01,2013-01-22 23:05:00,
2013-01-22 18:10:00,17.5,1.6,29.92,NE,53,4.0,17.0,49,0.00,,---,0.00,VWS V14.01,2013-01-22 23:10:00,
2013-01-22 18:15:00,17.4,2.0,29.92,NE,53,5.0,17.0,50,0.00,,---,0.00,VWS V14.01,2013-01-22 23:15:00,
2013-01-22 18:20:00,17.3,1.9,29.92,NE,36,11.0,17.0,50,0.00,,---,0.00,VWS V14.01,2013-01-22 23:20:00,
2013-01-22 18:25:00,17.1,1.7,29.93,ENE,57,4.0,17.0,50,0.00,,---,0.00,VWS V14.01,2013-01-22 23:25:00,
2013-01-22 18:30:00,17.0,1.6,29.93,NE,56,4.0,17.0,50,0.00,,---,0.00,VWS V14.01,2013-01-22 23:30:00,
2013-01-22 18:35:00,16.9,1.5,29.93,NE,51,6.0,13.0,50,0.00,,---,0.00,VWS V14.01,2013-01-22 23:35:00,
2013-01-22 18:40:00,16.8,1.4,29.94,NE,51,2.0,13.0,50,0.00,,---,0.00,VWS V14.01,2013-01-22 23:40:00,
2013-01-22 18:45:00,16.7,1.3,29.94,NE,55,6.0,13.0,50,0.00,,---,0.00,VWS V14.01,2013-01-22 23:45:00,
2013-01-22 18:50:00,16.6,1.2,29.94,NE,56,3.0,13.0,50,0.00,,---,0.00,VWS V14.01,2013-01-22 23:50:00,
2013-01-22 18:55:00,16.5,1.5,29.95,NE,52,15.0,15.0,51,0.00,,---,0.00,VWS V14.01,2013-01-22 23:55:00,
2013-01-22 19:01:00,16.5,2.0,29.95,East,96,2.0,22.0,52,0.00,,---,0.00,VWS V14.01,2013-01-23 00:01:00,
2013-01-22 19:06:00,16.5,2.8,29.95,ENE,57,18.0,27.0,54,0.00,,---,0.00,VWS V14.01,2013-01-23 00:06:00,
2013-01-22 19:12:00,16.4,3.8,29.95,ENE,66,4.0,27.0,57,0.00,,---,0.00,VWS V14.01,2013-01-23 00:12:00,
2013-01-22 19:17:00,16.2,4.0,29.96,ENE,65,6.0,27.0,58,0.00,,---,0.00,VWS V14.01,2013-01-23 00:17:00,
2013-01-22 19:22:00,16.1,4.3,29.96,ENE,59,13.0,27.0,59,0.00,,---,0.00,VWS V14.01,2013-01-23 00:22:00,
2013-01-22 19:27:00,15.9,5.2,29.96,NE,49,5.0,27.0,62,0.00,,---,0.00,VWS V14.01,2013-01-23 00:27:00,
2013-01-22 19:33:00,15.7,5.4,29.96,NE,51,5.0,7.0,63,0.00,,---,0.00,VWS V14.01,2013-01-23 00:33:00,
2013-01-22 19:38:00,15.5,5.5,29.96,NE,50,4.0,7.0,64,0.00,,---,0.00,VWS V14.01,2013-01-23 00:38:00,
2013-01-22 19:43:00,15.4,5.4,29.96,NE,53,0.0,10.0,64,0.00,,---,0.00,VWS V14.01,2013-01-23 00:43:00,
2013-01-22 19:48:00,15.3,5.7,29.96,NE,53,3.0,10.0,65,0.00,,---,0.00,VWS V14.01,2013-01-23 00:48:00,
2013-01-22 19:53:00,15.1,5.5,29.96,NE,53,2.0,10.0,65,0.00,,---,0.00,VWS V14.01,2013-01-23 00:53:00,
2013-01-22 19:58:00,15.0,5.4,29.96,NE,53,2.0,10.0,65,0.00,,---,0.00,VWS V14.01,2013-01-23 00:58:00,
2013-01-22 20:03:00,14.9,5.6,29.96,NE,53,4.0,4.0,66,0.00,,---,0.00,VWS V14.01,2013-01-23 01:03:00,
2013-01-22 20:08:00,14.8,5.5,29.96,NE,53,2.0,6.0,66,0.00,,---,0.00,VWS V14.01,2013-01-23 01:08:00,
2013-01-22 20:13:00,14.7,5.4,29.97,NE,53,0.0,6.0,66,0.00,,---,0.00,VWS V14.01,2013-01-23 01:13:00,
2013-01-22 20:19:00,14.6,5.3,29.97,NE,53,1.0,6.0,66,0.00,,---,0.00,VWS V14.01,2013-01-23 01:19:00,
2013-01-22 20:24:00,14.5,5.2,29.97,NE,53,1.0,6.0,66,0.00,,---,0.00,VWS V14.01,2013-01-23 01:24:00,
2013-01-22 20:29:00,14.3,5.0,29.97,NE,53,0.0,6.0,66,0.00,,---,0.00,VWS V14.01,2013-01-23 01:29:00,
2013-01-22 20:34:00,14.2,4.9,29.97,NE,53,0.0,6.0,66,0.00,,---,0.00,VWS V14.01,2013-01-23 01:34:00,
2013-01-22 20:39:00,14.1,4.8,29.97,NE,53,2.0,6.0,66,0.00,,---,0.00,VWS V14.01,2013-01-23 01:39:00,
2013-01-22 20:44:00,14.0,4.8,29.98,NE,53,1.0,6.0,66,0.00,,---,0.00,VWS V14.01,2013-01-23 01:44:00,
2013-01-22 20:49:00,13.9,4.7,29.98,NE,53,4.0,6.0,66,0.00,,---,0.00,VWS V14.01,2013-01-23 01:49:00,
2013-01-22 20:54:00,13.8,4.6,29.97,NE,53,4.0,6.0,66,0.00,,---,0.00,VWS V14.01,2013-01-23 01:54:00,
2013-01-22 20:59:00,13.7,4.5,29.98,NE,53,4.0,6.0,66,0.00,,---,0.00,VWS V14.01,2013-01-23 01:59:00,
2013-01-22 21:05:00,13.6,4.4,29.98,NE,53,4.0,4.0,66,0.00,,---,0.00,VWS V14.01,2013-01-23 02:05:00,
2013-01-22 21:10:00,13.6,4.7,29.98,NE,53,2.0,6.0,67,0.00,,---,0.00,VWS V14.01,2013-01-23 02:10:00,
2013-01-22 21:15:00,13.4,4.5,29.98,NE,53,1.0,6.0,67,0.00,,---,0.00,VWS V14.01,2013-01-23 02:15:00,
2013-01-22 21:20:00,13.3,4.4,29.98,NE,53,0.0,6.0,67,0.00,,---,0.00,VWS V14.01,2013-01-23 02:20:00,
2013-01-22 21:25:00,13.2,4.6,29.98,NE,53,0.0,6.0,68,0.00,,---,0.00,VWS V14.01,2013-01-23 02:25:00,
2013-01-22 21:30:00,13.1,4.5,29.98,NE,53,0.0,6.0,68,0.00,,---,0.00,VWS V14.01,2013-01-23 02:30:00,
2013-01-22 21:35:00,13.0,4.4,29.98,NE,53,0.0,1.0,68,0.00,,---,0.00,VWS V14.01,2013-01-23 02:35:00,
2013-01-22 21:40:00,12.7,4.5,29.98,NE,53,1.0,4.0,69,0.00,,---,0.00,VWS V14.01,2013-01-23 02:40:00,
2013-01-22 21:45:00,12.6,4.4,29.98,NE,53,3.0,4.0,69,0.00,,---,0.00,VWS V14.01,2013-01-23 02:45:00,
2013-01-22 21:51:00,12.5,4.3,29.99,NE,53,2.0,5.0,69,0.00,,---,0.00,VWS V14.01,2013-01-23 02:51:00,
2013-01-22 21:56:00,12.4,4.2,29.99,NE,53,3.0,5.0,69,0.00,,---,0.00,VWS V14.01,2013-01-23 02:56:00,
2013-01-22 22:01:00,12.3,3.8,29.99,NE,53,0.0,5.0,68,0.00,,---,0.00,VWS V14.01,2013-01-23 03:01:00,
2013-01-22 22:06:00,12.3,3.8,29.99,NE,53,2.0,2.0,68,0.00,,---,0.00,VWS V14.01,2013-01-23 03:06:00,
2013-01-22 22:11:00,12.2,3.7,29.99,NE,53,1.0,4.0,68,0.00,,---,0.00,VWS V14.01,2013-01-23 03:11:00,
2013-01-22 22:16:00,12.1,3.6,29.99,NE,53,2.0,4.0,68,0.00,,---,0.00,VWS V14.01,2013-01-23 03:16:00,
2013-01-22 22:21:00,12.1,3.6,30.00,NE,53,4.0,4.0,68,0.00,,---,0.00,VWS V14.01,2013-01-23 03:21:00,
2013-01-22 22:27:00,11.9,3.1,30.00,NE,53,0.0,4.0,67,0.00,,---,0.00,VWS V14.01,2013-01-23 03:27:00,
2013-01-22 22:32:00,11.8,3.3,30.00,NE,53,2.0,3.0,68,0.00,,---,0.00,VWS V14.01,2013-01-23 03:32:00,
2013-01-22 22:37:00,11.7,2.9,30.00,NE,53,2.0,4.0,67,0.00,,---,0.00,VWS V14.01,2013-01-23 03:37:00,
2013-01-22 22:42:00,11.6,2.1,30.00,NE,53,4.0,6.0,65,0.00,,---,0.00,VWS V14.01,2013-01-23 03:42:00,
2013-01-22 22:47:00,11.6,1.5,30.00,NE,53,1.0,10.0,63,0.00,,---,0.00,VWS V14.01,2013-01-23 03:47:00,
2013-01-22 22:52:00,11.7,1.2,30.01,NE,53,2.0,10.0,62,0.00,,---,0.00,VWS V14.01,2013-01-23 03:52:00,
2013-01-22 22:58:00,11.8,1.0,30.01,NE,53,4.0,10.0,61,0.00,,---,0.00,VWS V14.01,2013-01-23 03:58:00,
2013-01-22 23:03:00,11.9,0.3,30.01,NE,53,3.0,3.0,59,0.00,,---,0.00,VWS V14.01,2013-01-23 04:03:00,
2013-01-22 23:08:00,11.9,0.0,30.00,NE,53,4.0,7.0,58,0.00,,---,0.00,VWS V14.01,2013-01-23 04:08:00,
2013-01-22 23:13:00,11.9,-0.4,30.01,NE,53,0.0,7.0,57,0.00,,---,0.00,VWS V14.01,2013-01-23 04:13:00,
2013-01-22 23:18:00,11.8,-0.9,30.01,NE,53,3.0,7.0,56,0.00,,---,0.00,VWS V14.01,2013-01-23 04:18:00,
2013-01-22 23:23:00,11.8,-1.2,30.01,NE,53,0.0,7.0,55,0.00,,---,0.00,VWS V14.01,2013-01-23 04:23:00,
2013-01-22 23:28:00,11.7,-1.3,30.00,NE,53,3.0,7.0,55,0.00,,---,0.00,VWS V14.01,2013-01-23 04:28:00,
2013-01-22 23:33:00,11.6,-1.4,30.01,NE,53,1.0,4.0,55,0.00,,---,0.00,VWS V14.01,2013-01-23 04:33:00,
2013-01-22 23:38:00,11.5,-1.5,30.01,NE,53,0.0,4.0,55,0.00,,---,0.00,VWS V14.01,2013-01-23 04:38:00,
2013-01-22 23:44:00,11.3,-2.1,30.01,NE,53,0.0,4.0,54,0.00,,---,0.00,VWS V14.01,2013-01-23 04:44:00,
2013-01-22 23:49:00,11.2,-2.2,30.01,NE,53,1.0,4.0,54,0.00,,---,0.00,VWS V14.01,2013-01-23 04:49:00,
2013-01-22 23:54:00,11.1,-1.9,30.00,NE,53,1.0,4.0,55,0.00,,---,0.00,VWS V14.01,2013-01-23 04:54:00,
2013-01-22 23:59:00,10.9,-2.1,30.00,NE,53,0.0,4.0,55,0.00,,---,0.00,VWS V14.01,2013-01-23 04:59:00,